www.pogodaiklimat.ru

Погода и климат >> Архив погоды >> Мозамбик >> Иньямбане


ПОГОДА в Иньямбане

  • Прогноз погоды в Иньямбане
  • Монитор погоды в Иньямбане

АРХИВ ПОГОДЫ в Иньямбане

Время (UTC), дата Ветер
(напр.,м/с)
 
Видим.   Явления Облачность Т
(С)
Тd
(С)
f
(%)
Тe
(С)
Тes
(С)
Комфортность P
(гПа)
Po
(гПа)
Тmin
(С)
Tmax
(С)
R
(мм)
R24
(мм)
S
(см)
03 17.03 штиль 0 30 км 6/6 600 м
[Cu Sc]
+24.4 +22.9 91 +32 +32 очень
душно
1013.7 1012.0
06 17.03 штиль 0 30 км 6/4 600 м
[Cu Sc Ci]
+27.3 +21.2 69 +34 +39 очень
душно
1015.1 1013.4 +23.6 2
09 17.03 штиль 0 30 км 6/5 600 м
[Cu med, cong Ci fib]
+30.2 +21.0 58 +38 +49 очень
душно
1014.9 1013.2
12 17.03 СВ 6 30 км 8/8 600 м
[Cu med, cong]
+29.7 +20.0 56 +36 +37 очень
душно
1012.9 1011.2
15 17.03 СВ 3 30 км 8/8 600 м
[Cu Sc]
+28.0 +19.8 61 +34 +34 очень
душно
1011.2 1009.5
06 18.03 штиль 0 30 км 5/5 600 м
[Cu med, cong]
+27.6 +23.2 77 +37 +41 очень
душно
1013.6 1011.9 +25.3
09 18.03 СВ 3 30 км 5/5 600 м
[Cu med, cong]
+22.5 +13.3 56
12 18.03 СВ 4 30 км 6/5 600 м
[Cb cap Ci ing]
+32.3 +23.7 61 +44 +48 опасность
перегрева
1011.3 1009.6
15 18.03 С 7 30 км 5/5 600 м
[Cu med, cong]
+28.4 +21.9 68 +37 +37 очень
душно
1011.1 1009.4
18 18.03 СВ 5 30 км 5/5 600 м
[Sc]
+26.1 +21.8 77 +34 +34 очень
душно
1011.8 1010.1 +32.5
21 18.03 штиль 0 30 км 8/6 600 м
[Sc Ac trans]
+25.5 +22.7 85 +34 +34 очень
душно
1012.4 1010.7
00 19.03 штиль 0 30 км 8/8 600 м
[Cu Sc]
+25.9 +23.0 84 +35 +35 очень
душно
1012.6 1010.9
03 19.03 штиль 0 30 км 8/8 600 м
[Cu Sc]
+25.9 +23.7 88 +35 +35 очень
душно
1012.0 1010.3
06 19.03 штиль 0 30 км 9/4 600 м
[Cu med, cong Ac trans]
+25.9 +23.3 86 +35 +37 очень
душно
1013.7 1012.0 +25.1
09 19.03 СВ 2 30 км 9/8 600 м
[Cb calv Ac trans]
+30.1 +24.3 71 +42 +45 опасность
перегрева
1014.5 1012.8
12 19.03 СВ 4 30 км 8/4 600 м
[Cb cap Ac trans Ci ing]
+32.4 +23.8 61 +44 +47 опасность
перегрева
1012.3 1010.6
15 19.03 СВ 4 30 км 9/6 600 м
[Cb cap Ac As]
+29.3 +24.1 74 +41 +41 опасность
перегрева
1011.2 1009.5
18 19.03 штиль 0 8000 м гроза, ливневой дождь 9/9 600 м
[Cb cap]
+26.4 +23.6 85 +36 +36 очень
душно
1012.8 1011.1 +32.4 2
21 19.03 штиль 0 30 км 8/6 600 м
[Cu Sc Ac trans]
+26.7 +24.6 88 +38 +38 очень
душно
1012.8 1011.1
00 20.03 штиль 0 30 км 6/5 600 м
[Cu med, cong Ac trans]
+26.5 +24.0 86 +37 +37 очень
душно
1012.1 1010.4
03 20.03 штиль 0 30 км 8/8 600 м
[Cu Sc]
+26.0 +24.7 93 +37 +37 очень
душно
1010.4 1008.7
06 20.03 штиль 0 30 км 6/6 600 м
[Cu med, cong]
+27.2 +25.1 88 +39 +42 очень
душно
1012.3 1010.6 +25.6 2
09 20.03 С 3 30 км 5/5 600 м
[Cu med, cong Ac trans]
+31.4 +23.5 63 +42 +50 опасность
перегрева
1012.9 1011.2
12 20.03 ЮВ 5 30 км 5/4 600 м
[Cb cap Ci ing]
+30.0 +22.7 65 +40 +43 очень
душно
1011.3 1009.6
15 20.03 СВ 4 30 км 1/1 600 м
[Cu med, cong]
+29.0 +21.6 64 +37 +37 очень
душно
1010.5 1008.8
18 20.03 СВ 3 30 км 1/1 600 м
[Cu hum]
+26.6 +22.0 76 +34 +34 очень
душно
1011.0 1009.3 +31.8
21 20.03 штиль 0 30 км ясно +25.6 +22.5 83 +34 +34 очень
душно
1011.8 1010.1
00 21.03 штиль 0 30 км ясно +25.3 +22.2 83 +33 +33 очень
душно
1010.8 1009.1
03 21.03 штиль 0 30 км 1/1 600 м
[Cu hum]
+24.0 +21.8 88 +31 +31 очень
душно
1011.3 1009.6
06 21.03 штиль 0 30 км 5/5 600 м
[Cu med, cong]
+26.3 +23.2 83 +35 +39 очень
душно
1013.6 1011.9 +23.6
09 21.03 В 4 30 км 5/5 600 м
[Cu Sc]
+30.9 +22.1 59 +40 +45 очень
душно
1014.7 1013.0
12 21.03 ЮВ 3 30 км 4/4 600 м
[Cu med, cong Ac trans]
+32.1 +19.8 48 +38 +44 очень
душно
1013.2 1011.5
15 21.03 ЮВ 3 30 км 3/3 600 м
[Cu hum]
+30.3 +20.4 55 +37 +37 очень
душно
1011.9 1010.2
18 21.03 ЮВ 2 30 км 3/3 600 м
[Cu hum]
+27.5 +23.4 78 +37 +37 очень
душно
1013.3 1011.6 +32.2
21 21.03 штиль 0 30 км 5/5 600 м
[Cu med, cong]
+27.0 +24.0 84 +37 +37 очень
душно
1014.0 1012.3
00 22.03 штиль 0 30 км 4/4 600 м
[Cu med, cong]
+26.0 +23.1 84 +35 +35 очень
душно
1014.0 1012.3
03 22.03 штиль 0 30 км в посл. час ливневой дождь {морось} 4/4 600 м
[Cu med, cong]
+25.6 +23.4 88 +35 +35 очень
душно
1013.9 1012.2
06 22.03 ЮВ 3 30 км {ливн. осадки, морось} 5/5 600 м
[Cu Sc]
+28.8 +22.3 68 +38 +40 очень
душно
1016.5 1014.8 +25.2 0.3
09 22.03 В 4 30 км 8/8 600 м
[Cb calv]
+31.2 +20.1 52 +38 +40 очень
душно
1017.4 1015.7
12 22.03 ЮВ 5 30 км {ливн. осадки, дождь} 8/8 600 м
[Cb cap]
+28.5 +21.0 64 +36 +37 очень
душно
1015.7 1014.0 0.7
15 22.03 Ю 5 30 км 5/5 600 м
[Cu med, cong Ci fib]
+29.0 +21.3 63 +37 +37 очень
душно
1015.8 1014.1
21 22.03 штиль 0 9000 м слаб. морось 8/8 300 м
[Cu Sc]
+25.2 +23.0 88 +34 +34 очень
душно
1017.6 1015.9
00 23.03 штиль 0 8000 м слаб. ливневой дождь {морось} 8/8 600 м
[Cu Sc]
+25.2 +22.4 84 +33 +33 очень
душно
1018.1 1016.4 1
03 23.03 ЮВ 2 30 км {ливн. осадки} 4/4 600 м
[Cu med, cong]
+25.0 +21.6 81 +32 +32 очень
душно
1016.5 1014.8
06 23.03 ЮВ 4 30 км {ливн. осадки} 6/6 600 м
[Cu med, cong]
+27.9 +21.7 69 +36 +37 очень
душно
1018.2 1016.5 +24.7 3
09 23.03 ЮВ 6 30 км 8/8 600 м
[Cu med, cong]
+29.6 +21.8 63 +38 +39 очень
душно
1018.7 1017.0
12 23.03 ЮВ 6 30 км {ливн. осадки} 6/6 600 м
[Cu med, cong]
+29.6 +22.1 64 +38 +40 очень
душно
1017.6 1015.9 3
15 23.03 ЮВ 5 15 км в посл. час ливневой дождь 6/6 600 м
[Cu med, cong]
+26.1 +22.4 80 +34 +34 очень
душно
1016.5 1014.8

 

Местоположение метеостанции Иньямбане (Мозамбик): широта -23.87 долгота 35.38 высота над уровнем моря 15 м.

В архиве по умолчанию представлена погода в Иньямбане за последнюю неделю. Архивные данные за месяц целиком и за предыдущие месяцы, начиная с января 2011 года, Вы можете получить, выбрав интересующий диапазон дат из раскрывающегося списка и нажав кнопку "Ввод!".


*Определитесь, кто Вы:
робот инопланетянин человек

Внимание! Время в таблицах - всемирное. Для получения местного времени необходимо прибавить поправку, которая равна 2 ч.

Смотрите также архив погоды в соседних городах и на ближайших метеорологических станциях:

Погода в Панда (Мозамбик) (137 км)
Погода в Виланкуло (Мозамбик) (208 км)
Погода в Шаи-Шаи (Мозамбик) (220 км)
Погода в Вувулане (Свазиленд) (357 км)
Погода в Массанджена (Мозамбик) (357 км)
Погода в Мапуту (Мозамбик) (363 км)
Погода в Коматидрааи (Южная Африка) (396 км)
Погода в Скукузе (Южная Африка) (402 км)
Погода в Чангалане (Мозамбик) (419 км)
Погода в Пхалаборве (Южная Африка) (429 км)

Пояснения к столбцам:

Ветер - указаны скорость ветра в м/с - средняя за 10 мин, порывы в срок и между сроками (в фигурных скобках) и направление, откуда дует ветер: С - северный, СВ - северо-восточный, В - восточный, ЮВ - юго-восточный, Ю - южный, ЮЗ - юго-западный, З - западный, СЗ - северо-западный.
Видимость - горизонтальная дальность видимости в метрах или километрах. При видимости от 1 до 10 км при отсутствии осадков обычно наблюдается дымка, при ухудшении видимости до 1 км и менее - туман. В сухую погоду видимость может ухудшаться дымом, пылью или мглою.
Явления - указаны атмосферные явления, наблюдавшиеся в срок или в последний час перед сроком; фигурными скобками обозначены явления, наблюдавшиеся между сроками (за 1-3 часа до срока); квадратными скобками обозначены град или гололедные отложения с указанием их диаметра в мм.
Облачность - указаны через наклонную черту общая и нижняя облачность в баллах и высота нижней границы облаков в метрах; квадратными скобками обозначены формы облаков: Ci - перистые, Cs - перисто-слоистые, Cc - перисто-кучевые, Ac - высококучевые, As - высокослоистые, Sc - слоисто-кучевые, Ns - слоисто-дождевые, Cu - кучевые, Cb - кучево-дождевые. Подробнее классификацию облаков см. в Атласе облаков (PDF).
T - Температура воздуха - температура, измеренная на высоте 2 м над землей.
Td - Температура точки росы - температура, при понижении до которой содержащийся в воздухе водяной пар достигнет насыщения.
f - Относительная влажность воздуха - влажноcть воздуха, измеренная на высоте 2 м над землей.
Te - Эффективная температура - температура, которую ощущает одетый по сезону человек в тени. Характеристика душности погоды. При расчете учитывается влияние влажности воздуха и скорости ветра на теплоощущения человека.
Tes - Эффективная температура на солнце - температура, которую ощущает человек, с поправкой на солнечный нагрев. Характеристика знойности погоды. Зависит от высоты солнца над горизонтом, облачности и скорости ветра. Ночью, в пасмурную погоду, а также при ветре 12 м/с и более поправка равна нулю.
P - Атмосферное давление - приведенное к уровню моря атмосферное давление.
Po - Атмосферное давление - измеренное на уровне метеостанции атмосферное давление.
Tmin - Минимальная температура - минимум температуры воздуха на высоте 2 м над землей.
Tmax - Максимальная температура - максимум температуры воздуха на высоте 2 м над землей.
R - Количество осадков - Количество выпавших осадков за период времени, мм. При наведении курсора мыши на число - период времени, за который выпало указанное количество осадков.
R24 - Количество осадков - Количество выпавших осадков за 24 часа, мм.
S - Снежный покров - Высота снежного покрова, см. При наведении курсора мыши на число - состояние снежного покрова и степень покрытия местности в баллах.